Вернуться в каталог

TITAN 3C TRANSTAGE R/B

АктивенMEO
NORAD 12932·ROCKET BODY·🇺🇸 United States

Запущен Oct 31, 1981 с Cape Canaveral Space Force Station

Loading…

Ближайшие Пролёты (ближайшие 24 часа)

TLE

СвежийSource: Space-Track

Эпоха: Sep 13, 2026, 23:08 UTC

1 12932U 81107C   26256.96417943  .00000035  00000-0  00000-0 0  9996
2 12932   5.3190   7.6833 0999109 116.7453 253.8720  0.99593373 27103

Отслеживайте TITAN 3C TRANSTAGE R/B в реальном времени с AllMySat

Download on the App Store